Wind_Speed
63 62 61 61 63 65 63 60 58 59 61 60 55 53 53 51 49 45 43 43 41 38 37 35 34 34 35 36 37 37 36 33 31 31 31 27 24 26 28 27 26 25 24 22 25 29 31 32 33 33 33 35 36 34 33 31 30 28 27 26 26 27 29 29 28 28 27 27 27 28 28 26 24 23 23 23 23 23 23 23 22 21 21 20 19
64 62 60 58 59 59 58 59 61 60 58 57 55 54 50 45 43 42 42 40 36 33 32 32 32 33 34 34 35 36 35 32 31 31 30 27 27 29 30 29 28 26 23 22 26 30 32 32 33 33 33 33 35 36 36 36 36 35 32 30 28 28 29 29 29 30 29 28 28 27 27 27 25 24 24 24 24 24 24 23 23 22 22 21 20
66 65 61 56 53 53 55 60 62 58 55 55 53 49 44 40 40 41 39 35 35 32 28 29 32 32 33 33 33 34 34 32 31 32 31 31 34 33 32 32 32 30 26 25 27 31 33 33 32 32 33 33 33 34 35 36 38 39 38 37 35 33 31 31 30 30 30 29 29 28 26 25 25 25 25 25 24 24 24 24 23 23 23 22 21
67 66 65 62 60 60 62 64 61 55 52 50 47 44 40 38 39 39 36 35 35 31 28 29 31 32 32 32 32 32 33 31 31 31 31 33 36 35 32 31 32 32 29 26 29 32 35 36 35 35 35 35 35 35 36 38 39 41 42 42 42 39 37 35 33 31 30 29 30 29 27 25 25 25 25 24 24 24 24 24 23 23 23 23 23
65 65 64 64 67 67 65 64 60 53 49 49 47 44 39 36 38 36 35 35 33 30 29 29 30 31 31 31 32 31 32 31 31 31 30 33 37 36 33 31 31 33 30 27 27 28 31 32 34 35 36 36 37 39 40 42 43 43 44 45 45 45 43 40 37 35 33 32 31 31 29 28 28 27 26 25 24 24 24 24 24 23 23 24 24
67 67 66 64 65 62 61 63 61 54 51 51 48 43 36 33 37 37 34 33 30 27 27 28 29 30 31 31 31 30 30 29 29 30 30 33 38 37 33 32 32 34 32 28 27 27 27 26 27 30 32 33 35 39 42 42 43 43 45 45 47 47 45 43 40 39 38 35 33 32 32 31 30 29 28 27 25 24 25 25 25 25 24 24 24
69 68 66 62 56 52 54 57 56 53 53 51 45 40 34 33 36 35 32 31 28 25 26 27 28 30 30 30 30 29 27 27 28 29 30 32 37 38 34 33 34 35 34 31 30 30 28 26 26 29 32 32 31 35 39 40 40 40 42 44 46 46 45 44 41 41 41 39 36 34 33 33 32 31 30 28 26 25 25 26 26 25 25 24 24
64 62 61 59 55 52 53 54 54 54 53 48 44 39 35 35 35 31 29 30 28 26 26 27 29 30 30 28 29 29 27 27 28 29 29 31 37 38 35 33 35 37 36 33 31 32 30 26 25 27 29 29 29 32 35 36 36 36 38 41 43 44 44 43 41 41 41 42 40 37 35 34 33 32 31 30 29 28 27 27 27 26 25 26 26
57 55 55 55 56 56 54 55 56 53 48 44 42 39 37 37 35 30 28 28 28 26 24 26 28 29 29 28 29 30 28 27 29 30 30 31 36 40 37 34 35 37 37 33 31 33 33 28 24 23 23 23 25 29 31 31 30 31 33 36 39 41 42 42 42 41 40 41 42 41 39 37 36 35 34 34 33 33 30 28 28 27 27 28 29
53 51 51 52 54 54 51 49 48 45 43 44 41 38 40 39 35 32 28 28 29 26 23 24 27 28 30 29 29 29 29 28 29 31 33 33 36 40 40 37 36 37 37 35 33 34 34 31 27 26 25 23 23 25 28 28 27 28 29 32 35 37 38 40 41 41 39 39 40 41 41 40 40 38 36 35 33 32 30 29 29 29 29 29 29
47 47 48 48 49 48 44 42 41 38 38 42 41 40 42 40 36 33 29 31 34 31 28 29 31 31 32 32 32 30 31 31 29 29 33 34 35 40 43 40 38 40 41 39 36 35 35 34 32 31 30 27 24 23 25 27 27 27 28 29 31 33 35 37 39 40 39 37 36 37 39 39 39 37 35 33 31 30 30 30 29 30 31 29 28
42 43 44 43 42 42 40 40 40 36 33 37 43 44 44 41 36 33 33 36 38 36 35 35 36 35 33 32 33 32 33 36 31 27 30 34 34 38 43 42 40 41 41 40 37 34 34 35 35 34 32 31 27 24 25 26 27 28 28 28 29 30 32 34 36 39 40 39 37 36 38 39 38 37 35 33 32 30 30 30 30 31 31 30 29
38 39 39 39 39 39 38 38 39 36 33 35 43 46 45 43 38 36 38 39 40 40 37 36 37 35 31 30 30 30 34 39 36 30 29 33 35 37 42 44 42 41 39 39 37 34 34 34 34 33 32 30 28 27 28 26 26 27 27 27 27 27 28 29 32 35 38 40 40 40 39 40 40 38 36 35 33 31 30 30 30 31 31 31 30
34 35 35 36 36 36 37 37 37 35 34 36 42 47 47 46 42 40 41 42 43 42 39 36 36 34 32 31 30 29 32 37 38 35 32 34 36 37 42 45 43 42 40 38 37 36 35 34 33 32 31 29 29 30 30 28 26 24 23 22 22 23 25 26 28 31 34 37 40 42 42 42 42 41 38 37 35 33 32 31 31 31 31 31 31
31 31 32 32 33 34 36 38 39 37 37 39 43 47 48 49 46 42 44 46 46 45 42 38 36 36 35 33 33 32 33 35 37 37 35 36 38 39 42 45 43 42 41 39 38 37 36 34 33 32 31 31 32 32 32 32 29 25 22 19 18 19 22 24 27 29 31 33 36 39 42 43 43 43 41 40 38 36 34 33 33 32 31 31 31
30 30 30 30 30 32 33 35 37 38 39 41 44 46 48 51 48 44 46 50 50 49 45 39 36 37 36 35 35 35 36 35 35 36 37 38 40 40 42 45 45 44 42 41 40 39 38 36 34 33 34 35 35 34 34 35 34 30 27 25 23 23 23 25 27 29 31 32 34 36 39 42 43 43 43 42 41 40 38 36 35 34 33 32 32
28 28 28 28 28 29 30 31 33 35 39 43 45 46 49 53 50 46 48 52 52 50 45 39 37 39 39 38 36 36 37 37 35 36 37 39 41 42 42 44 46 46 44 43 42 41 41 39 37 36 36 36 36 36 35 36 37 35 32 31 30 29 29 30 30 30 30 30 31 32 35 38 41 43 44 44 44 44 43 41 39 38 37 35 34
27 27 28 28 28 28 28 29 30 32 36 42 47 48 49 54 53 47 47 51 53 50 45 41 41 42 43 42 40 37 38 40 38 37 38 39 42 44 44 44 45 46 45 44 43 42 42 40 40 40 40 38 37 37 36 37 39 38 36 35 34 34 34 33 33 32 30 29 28 28 30 32 36 39 41 43 44 44 44 44 43 42 41 40 38
25 26 27 28 28 29 29 29 29 30 32 36 44 48 50 54 56 51 47 48 52 50 46 44 43 43 43 43 41 37 39 42 39 38 40 41 43 45 46 46 45 45 45 45 44 43 42 42 42 43 42 41 40 40 39 40 41 41 39 38 37 37 36 34 34 34 31 29 28 27 27 28 30 33 36 39 41 42 42 42 43 43 43 42 41
24 24 25 27 28 29 29 29 29 29 30 31 36 43 48 53 56 55 49 45 48 49 47 44 41 40 41 41 40 37 39 42 40 39 40 41 43 46 47 47 47 46 44 43 44 43 43 43 44 44 44 42 42 41 41 41 43 43 43 41 39 37 36 35 35 35 32 30 29 29 28 26 26 27 30 33 37 39 40 40 40 40 41 42 42
24 24 25 26 27 28 29 30 31 31 30 30 31 34 41 48 54 57 54 47 46 48 48 45 41 39 39 39 38 37 38 42 41 41 41 42 43 45 47 48 48 47 44 42 42 43 43 43 44 46 45 44 43 42 41 42 43 43 44 42 39 38 37 38 37 35 33 32 32 31 30 28 26 25 26 29 32 35 39 40 41 41 41 41 42
27 27 27 28 29 29 29 30 31 32 32 32 32 33 35 41 47 53 56 53 49 49 49 48 43 41 41 39 39 38 38 41 43 43 42 42 43 44 46 48 49 49 47 46 44 43 44 44 44 45 46 45 44 43 43 43 43 43 43 42 40 39 39 40 39 37 35 34 34 33 33 31 30 29 29 29 30 31 33 36 39 41 42 43 43
28 29 29 29 30 31 31 32 32 33 33 33 34 35 35 37 41 46 52 54 53 52 52 51 47 44 43 42 41 40 40 41 42 44 45 44 44 43 44 46 47 48 48 48 46 45 45 46 46 46 46 46 45 44 44 44 44 44 44 43 42 41 41 41 41 39 37 36 36 36 36 35 34 33 33 32 31 30 31 32 33 35 38 40 42
30 30 30 30 30 31 31 33 34 35 35 35 35 35 35 36 39 42 47 50 52 53 53 53 51 48 47 46 46 44 44 43 42 45 47 46 45 45 44 45 46 47 47 47 46 46 46 46 47 48 48 47 46 46 46 46 46 46 45 44 44 44 44 43 42 41 39 38 38 38 38 38 37 35 34 33 32 30 30 31 31 31 32 33 36
32 33 33 33 32 31 31 32 34 35 37 38 38 38 37 36 37 40 44 47 50 52 52 53 54 53 50 50 50 49 49 47 46 47 50 49 48 47 47 46 46 46 46 45 45 45 44 44 44 45 46 46 46 46 47 48 48 47 45 43 44 45 45 44 43 43 42 41 41 41 41 40 38 36 34 34 33 31 32 32 32 30 30 30 31
34 34 35 35 34 34 33 33 34 35 37 39 40 41 41 40 39 40 42 45 48 51 52 53 54 54 53 53 53 53 53 52 50 50 52 51 49 49 50 49 48 48 46 45 45 45 45 44 43 43 43 43 44 46 47 49 49 48 47 46 46 46 44 44 44 44 44 43 43 44 44 42 40 38 36 35 34 34 35 35 34 32 30 29 29
36 36 36 37 37 36 36 35 35 35 36 37 39 41 42 42 42 41 42 43 46 49 51 52 53 54 54 54 55 56 56 56 54 53 54 54 52 51 51 52 51 50 49 47 47 47 47 46 44 43 43 42 43 45 47 49 50 50 50 51 50 47 45 45 45 45 45 45 44 45 45 43 41 41 40 38 37 38 38 38 38 36 33 30 29
39 39 38 38 39 39 39 38 38 37 37 37 38 40 41 42 43 43 43 43 45 47 49 51 52 53 53 53 55 56 58 59 57 55 55 56 56 54 52 53 53 52 52 51 50 50 49 48 47 46 45 44 44 44 46 48 50 51 52 52 51 49 47 48 48 48 47 47 46 45 46 45 44 44 44 44 44 43 43 41 41 41 39 36 32
42 42 41 41 41 41 41 41 41 41 40 39 39 39 40 42 43 43 44 45 45 46 47 50 51 52 53 52 53 55 57 60 60 59 56 55 56 58 56 54 54 54 53 53 53 53 52 51 50 50 49 47 46 45 45 47 50 51 52 52 51 50 49 50 50 50 49 48 47 46 46 46 46 46 47 47 47 47 46 45 44 43 43 41 38
46 45 44 44 43 43 43 43 44 44 44 44 43 42 41 41 42 44 45 46 46 46 47 48 49 50 51 51 52 53 55 58 61 62 61 57 54 57 59 58 57 56 55 54 54 54 55 54 53 53 53 51 50 48 47 48 50 51 52 53 52 51 52 52 52 51 50 49 48 48 48 48 48 48 48 48 48 48 47 47 46 45 44 44 44
49 48 48 47 47 46 46 46 46 46 47 47 47 46 45 43 42 43 45 46 48 48 48 48 49 49 49 50 51 51 52 55 59 62 65 63 58 55 57 58 59 59 57 56 56 56 56 56 56 55 55 55 54 53 51 51 52 53 53 54 53 53 54 54 53 53 52 51 51 50 50 50 50 49 49 48 48 48 48 48 48 47 46 46 46
51 50 50 50 50 49 49 49 49 49 49 49 49 49 49 48 46 45 45 46 47 49 50 50 50 50 49 49 50 51 52 53 56 59 63 66 65 61 58 57 58 60 61 59 58 58 58 57 57 56 56 57 57 56 55 54 55 55 56 56 56 56 56 56 55 55 55 54 53 53 53 53 52 51 50 49 49 49 50 50 50 50 50 49 48
54 53 52 52 52 52 52 52 52 52 52 52 52 51 51 51 51 50 48 47 47 48 50 51 52 52 52 51 51 52 53 53 55 57 60 63 65 65 63 60 58 59 61 62 61 61 60 60 59 58 58 58 59 59 58 58 58 58 57 57 57 58 58 58 57 57 57 57 57 56 56 55 54 52 52 51 51 51 51 51 52 51 52 52 51
56 55 55 55 55 55 56 55 55 55 56 55 55 54 54 53 53 53 53 52 51 50 50 51 52 53 53 54 53 53 54 55 55 56 58 61 63 65 66 65 62 61 61 62 63 63 63 63 62 62 61 61 62 63 62 62 62 61 60 59 58 57 58 58 58 59 59 60 59 59 58 57 55 55 55 54 53 52 52 52 53 52 52 53 54
56 55 56 57 58 59 60 59 58 58 58 58 58 58 57 56 55 55 55 55 55 55 54 53 53 53 54 54 55 55 55 56 56 57 58 60 61 63 65 66 66 65 64 63 64 64 65 66 66 66 65 63 64 65 66 66 66 65 64 63 62 61 61 61 61 61 61 62 61 61 61 60 59 58 58 56 55 54 54 55 56 56 54 53 53
58 59 59 59 59 60 61 62 62 62 61 60 60 61 60 60 59 58 58 57 57 57 58 57 57 56 56 56 56 56 56 56 56 58 59 60 61 62 64 65 66 68 68 67 66 66 66 67 68 69 70 69 67 68 69 70 70 70 69 67 66 65 65 66 66 66 65 65 65 65 65 64 62 61 60 59 58 57 58 58 59 59 59 57 55
60 62 63 64 63 62 63 64 64 64 65 65 65 64 63 62 61 61 60 60 60 60 60 60 60 60 60 59 58 58 58 57 57 57 59 61 62 63 64 65 66 67 69 69 69 69 68 68 69 70 72 73 73 73 73 73 73 73 73 72 71 70 69 69 70 70 69 68 67 67 67 67 66 64 63 62 61 60 60 61 61 62 62 62 62
63 64 65 66 64 65 67 68 68 66 65 65 65 66 65 64 63 63 63 63 63 63 63 62 62 63 63 62 62 61 61 60 59 59 59 60 62 64 65 66 67 67 68 69 70 70 70 71 71 71 72 74 76 77 77 76 75 75 75 75 76 76 75 73 72 72 72 71 69 67 66 67 67 66 65 64 64 63 62 62 62 62 63 64 64
65 65 65 65 64 64 66 68 70 69 66 63 63 64 65 65 65 65 65 65 65 65 65 65 65 65 65 65 65 65 65 64 63 62 62 61 62 63 65 67 68 68 69 70 71 71 72 72 72 73 73 73 75 78 79 79 79 78 76 75 76 77 78 79 78 77 76 75 74 73 71 69 69 68 67 66 65 64 63 62 62 62 62 63 63
61 62 62 63 64 63 61 62 64 65 64 63 63 64 66 66 66 67 66 66 66 67 68 68 67 68 68 68 68 68 68 68 67 67 66 65 65 65 65 66 68 69 70 71 72 72 73 73 73 74 74 74 74 76 77 78 80 81 80 79 77 76 76 77 79 80 80 79 79 79 79 78 77 76 74 72 70 68 67 66 65 66 67 67 67
59 58 58 60 61 60 60 61 60 60 61 62 63 65 68 69 69 69 68 67 67 68 69 70 70 71 71 71 71 72 72 71 70 70 70 70 70 69 69 69 69 69 70 71 72 73 73 74 75 75 75 75 75 75 75 76 77 79 81 82 82 82 79 77 77 78 79 80 81 81 81 82 83 83 82 81 79 77 76 74 74 75 76 77 77
60 60 60 61 62 62 63 65 64 62 61 63 64 66 69 71 70 69 69 70 71 72 72 73 73 74 75 75 74 75 75 75 74 74 74 74 73 73 73 73 72 72 71 71 72 73 73 74 75 76 76 77 77 77 76 76 76 76 78 80 83 84 85 83 82 81 80 79 80 80 81 83 83 83 84 83 83 83 82 82 83 83 84 84 84
62 63 64 66 67 67 66 68 70 68 66 66 66 67 69 71 70 68 67 69 71 73 75 76 76 76 77 77 77 78 79 79 79 78 78 77 77 76 76 76 76 75 75 75 74 74 74 75 75 76 77 77 78 78 77 77 77 76 76 78 79 82 84 85 86 87 86 84 81 81 82 83 83 83 83 84 84 84 84 84 85 85 86 86 86
63 64 64 66 68 68 68 68 69 68 68 69 69 69 70 71 71 70 68 68 69 70 73 75 77 78 78 78 79 81 82 82 82 81 81 81 81 80 79 79 79 79 78 78 78 78 78 77 78 78 78 78 78 79 79 79 78 78 78 78 78 79 80 82 83 85 87 86 85 84 84 84 84 84 85 85 86 85 86 86 86 86 86 86 86
66 66 66 66 67 67 67 67 65 65 67 70 72 73 74 75 73 72 71 71 70 70 71 72 75 77 79 79 80 81 82 83 84 84 83 83 84 83 83 83 82 82 82 81 81 82 82 82 81 81 81 80 80 81 81 80 80 80 81 81 81 80 80 80 81 83 84 85 84 83 83 84 84 84 84 85 86 86 86 86 86 87 87 88 88
68 68 68 69 69 69 68 67 64 64 67 70 73 75 75 75 74 72 73 74 73 72 72 73 74 75 77 79 80 81 82 83 83 84 85 86 86 86 86 86 86 86 85 85 85 85 86 86 85 85 85 84 83 84 84 83 83 82 82 82 82 82 82 82 82 83 83 84 84 82 82 83 84 83 83 85 86 86 86 86 86 86 87 88 89
70 70 70 71 71 72 71 69 66 66 69 72 74 74 73 72 72 72 74 75 74 74 75 76 76 75 77 79 80 82 83 83 83 84 85 87 88 89 88 88 88 89 88 88 89 89 89 89 89 89 89 89 88 88 88 88 86 85 85 84 84 83 84 84 84 84 84 86 86 84 83 84 86 85 84 85 87 87 87 87 86 87 87 88 89
72 72 72 72 73 74 73 71 70 71 73 74 75 75 74 73 73 74 75 75 75 76 76 77 77 78 79 80 81 83 83 83 83 84 85 87 88 89 89 89 90 91 91 92 92 92 92 92 92 92 92 92 92 92 92 92 91 90 89 87 87 87 87 86 85 85 86 87 88 86 85 86 88 88 87 88 89 89 88 88 87 87 88 88 88
73 73 73 72 73 73 73 73 73 74 75 76 76 75 75 76 76 77 78 77 77 77 77 77 78 79 81 82 83 83 83 83 83 84 85 86 87 87 88 89 90 92 93 94 94 95 95 95 96 96 96 96 96 96 96 95 95 95 94 92 91 91 90 89 88 88 89 89 89 89 87 87 89 89 89 89 91 91 91 90 89 88 88 88 89
73 73 73 72 71 71 73 74 75 76 76 76 76 75 76 77 78 79 80 79 79 79 79 79 79 80 82 84 83 83 83 83 84 85 86 86 86 86 87 88 89 91 92 94 96 96 97 98 98 99 99 99 99 99 99 99 98 98 98 97 96 96 95 93 92 92 92 92 92 92 91 90 91 91 91 91 92 93 93 92 91 89 88 89 90
74 74 72 71 70 70 72 74 75 76 76 75 76 76 77 77 78 79 79 79 79 80 80 81 81 82 83 84 83 83 83 84 86 87 87 87 86 87 87 88 89 90 91 93 95 96 98 99 100 101 101 102 102 102 102 102 101 101 101 100 100 100 99 98 97 96 95 95 96 96 95 94 94 95 95 95 95 95 95 95 93 92 91 91 92
Wind_Direction
272 274 276 276 277 280 278 276 276 278 283 282 278 280 284 287 288 286 282 281 279 277 277 273 266 260 255 253 253 251 248 244 241 238 242 245 234 222 222 230 234 229 227 226 228 234 241 245 246 247 245 240 240 241 241 242 241 239 239 239 242 245 248 251 251 252 253 254 256 259 259 257 257 261 266 269 272 273 273 270 265 263 264 266 269
272 275 276 277 280 280 276 275 278 281 280 277 278 280 280 280 281 280 280 281 278 275 274 268 263 258 254 253 253 252 248 242 238 238 238 227 211 213 225 232 234 232 233 234 232 236 243 247 248 250 249 245 242 242 244 247 249 248 246 242 239 239 240 243 245 247 249 252 257 262 261 255 254 260 264 268 271 272 272 270 265 261 260 262 266
272 273 273 273 273 271 271 276 278 277 276 277 279 277 274 273 275 273 273 274 274 272 269 265 261 257 254 253 252 252 249 242 238 240 240 226 209 212 225 229 230 231 233 238 236 236 242 249 253 253 252 252 250 248 248 250 253 254 254 251 247 242 240 241 242 246 250 253 257 261 260 253 252 258 262 265 268 268 268 267 265 260 256 257 261
271 271 269 266 264 265 270 275 274 272 275 278 278 273 268 267 268 266 265 268 269 267 265 263 259 255 253 252 252 252 251 247 242 241 243 234 218 214 221 223 223 224 226 231 233 234 238 246 251 252 252 252 253 253 252 250 250 252 253 254 253 249 246 245 244 246 250 252 253 255 253 249 249 254 257 261 262 263 263 264 265 261 255 253 256
266 266 265 264 264 266 268 269 267 269 273 275 275 272 265 261 259 258 261 264 265 263 260 257 255 254 253 252 252 251 251 248 243 241 241 236 223 216 217 215 216 219 220 225 229 230 234 241 246 248 250 251 251 252 252 250 248 248 249 250 252 252 251 249 246 244 246 248 248 249 249 248 249 251 255 259 262 263 262 261 263 261 255 252 253
265 265 266 266 266 267 267 265 264 265 269 271 271 267 261 255 251 252 258 260 260 259 255 253 252 252 251 252 251 249 249 245 240 239 237 232 225 220 216 211 213 218 220 226 232 234 236 242 246 247 250 251 250 249 249 249 248 248 248 248 249 251 253 252 249 245 244 246 247 247 249 251 253 254 255 258 262 264 264 262 262 262 255 251 251
266 266 267 266 264 264 264 263 263 264 268 270 265 259 255 248 243 247 253 253 251 247 249 252 252 250 248 250 253 251 249 245 240 238 236 229 224 222 218 210 211 217 221 226 234 240 243 247 249 248 251 253 251 248 247 247 248 248 248 247 248 249 252 253 253 250 247 248 248 248 250 252 254 255 256 257 260 265 266 263 262 263 257 252 253
266 266 265 262 258 259 258 259 261 264 266 264 256 252 248 240 233 237 246 246 241 238 243 250 251 251 247 247 252 252 249 244 241 237 236 231 223 222 220 213 212 216 220 224 230 239 245 249 251 250 251 255 253 250 250 249 249 249 248 248 247 248 250 252 253 252 251 250 249 249 250 252 253 255 256 257 261 266 267 264 263 263 259 254 255
264 264 263 258 254 256 258 259 260 261 260 252 249 247 241 232 224 226 238 241 236 234 240 248 250 253 253 252 253 253 251 244 238 233 231 230 225 223 223 219 214 216 222 225 230 237 244 250 255 256 257 260 259 255 255 254 253 252 251 251 250 249 249 250 250 251 253 253 252 251 251 253 255 256 258 260 264 267 266 264 263 263 260 257 257
261 261 258 254 252 254 257 257 255 256 252 243 242 241 233 226 219 220 228 232 233 231 233 244 250 254 255 253 253 254 252 245 238 231 228 227 226 224 224 222 216 216 225 231 233 238 246 252 258 262 263 266 270 267 261 258 257 256 254 254 255 254 253 251 250 248 251 255 256 255 255 256 257 258 260 262 264 265 264 263 263 263 262 260 260
257 255 253 252 252 253 252 250 248 247 244 238 236 234 228 222 218 218 223 228 233 231 230 239 245 248 252 252 252 252 247 245 242 234 229 226 225 224 222 223 220 217 224 230 233 239 245 250 256 262 264 264 270 276 272 263 258 257 256 256 256 258 257 255 253 249 247 250 255 258 258 259 259 260 262 263 264 264 264 263 263 264 264 262 262
255 252 252 251 250 248 245 245 243 239 236 232 231 229 225 220 213 214 222 228 230 230 231 237 241 246 254 254 251 247 240 240 241 239 233 228 226 225 221 222 222 220 222 225 228 235 243 248 253 258 259 258 259 271 277 270 262 259 257 258 258 259 260 259 257 253 248 246 248 253 257 258 260 262 263 264 265 266 266 266 265 266 265 263 263
254 252 251 250 249 247 244 242 240 236 233 229 225 224 222 216 211 213 222 226 225 226 228 233 238 243 249 249 247 246 239 235 237 238 235 230 227 226 222 222 223 223 222 224 226 230 237 245 251 254 255 254 254 262 272 271 266 263 260 260 261 261 261 260 258 255 252 248 246 248 253 257 259 262 264 265 266 267 267 267 268 267 265 263 264
252 251 251 250 248 246 244 242 240 239 237 231 224 222 220 214 211 216 221 222 222 224 226 230 236 238 239 243 247 249 242 236 235 235 235 231 227 226 223 222 224 223 222 225 229 230 232 237 244 250 253 253 252 257 264 266 263 262 261 260 260 261 260 259 257 254 253 252 249 247 250 255 259 261 263 264 265 265 265 265 266 266 263 261 263
249 249 248 247 246 244 244 243 242 241 236 231 225 222 219 212 213 220 221 219 220 223 227 231 235 235 237 241 244 246 245 241 235 233 235 231 226 225 223 221 223 222 221 225 229 230 231 232 236 241 245 248 250 254 259 261 260 255 252 250 249 252 254 255 256 254 253 254 253 250 249 252 258 261 263 263 263 263 262 262 263 264 262 260 261
247 247 246 245 244 242 242 241 241 237 231 229 227 222 217 211 214 220 221 220 221 224 229 234 235 235 238 239 239 241 243 241 236 231 233 231 226 224 222 221 222 222 222 224 227 229 231 232 235 239 242 245 249 252 255 257 257 252 245 241 238 239 244 248 251 254 254 254 254 253 251 251 254 258 260 261 262 261 261 262 263 264 263 261 260
246 246 244 243 242 240 239 237 236 233 228 228 229 225 217 212 214 219 221 222 224 227 230 234 237 236 237 239 240 241 239 237 235 230 229 230 226 224 223 223 223 223 223 224 226 229 231 233 237 241 242 244 247 249 251 253 253 250 244 240 238 238 241 245 249 252 255 255 255 254 254 253 254 255 257 259 260 260 261 262 263 264 265 264 263
246 245 243 242 242 241 240 237 234 232 228 228 230 228 220 215 216 218 222 224 226 229 231 234 238 239 240 242 243 242 235 231 233 231 228 228 226 224 224 225 225 225 225 226 226 228 230 231 234 238 240 242 246 247 248 249 250 246 242 240 240 242 245 249 251 252 254 256 256 255 255 255 256 255 256 257 258 259 260 261 262 264 264 265 265
248 246 245 244 243 244 244 241 238 234 232 229 228 229 225 220 219 220 224 227 227 228 231 234 238 240 242 242 242 241 231 226 229 230 229 228 226 225 225 226 226 226 228 229 228 228 229 229 231 234 236 240 245 246 247 250 249 246 243 241 242 245 249 253 255 255 255 256 258 258 257 258 259 258 257 256 256 258 260 260 261 262 263 264 264
248 248 248 248 248 247 246 244 242 238 236 234 230 229 228 225 225 225 227 229 228 226 228 234 238 240 240 238 238 236 228 224 226 228 230 229 227 225 225 226 226 227 230 231 231 231 231 232 233 233 235 239 244 245 246 248 249 248 246 245 245 249 253 257 259 260 260 260 262 263 261 260 262 263 261 258 256 255 257 259 259 259 260 261 262
246 247 249 251 251 250 249 246 243 240 238 238 238 236 232 230 230 230 229 229 229 227 229 235 238 237 237 236 234 233 227 224 226 228 230 231 229 227 225 225 225 226 229 232 233 234 234 234 234 235 236 238 241 242 243 246 248 248 248 248 249 251 255 258 262 263 263 264 266 265 262 260 261 263 263 262 260 258 257 257 258 258 258 258 260
244 246 248 250 252 251 251 248 245 243 240 239 241 243 240 236 234 233 232 231 231 232 233 237 238 232 233 234 233 232 229 225 226 229 231 232 231 229 227 226 226 227 229 232 233 234 235 235 235 237 238 236 237 239 242 244 246 246 247 247 247 249 253 257 260 262 262 263 264 264 262 260 259 260 261 263 265 264 262 261 260 259 258 258 259
244 246 248 248 250 250 250 249 247 244 242 240 241 243 243 241 238 236 235 234 233 234 236 239 239 233 230 231 232 233 230 225 226 229 231 233 232 231 229 228 228 229 231 233 235 237 237 237 238 239 240 237 237 239 240 241 243 244 245 245 245 246 249 254 258 260 261 262 262 262 260 259 259 260 262 264 265 266 267 268 266 264 262 260 259
245 247 248 249 250 250 249 248 246 244 243 241 242 243 244 243 242 241 239 237 236 236 237 240 241 237 231 228 229 232 231 228 227 230 232 232 233 233 232 230 229 230 233 234 236 239 240 240 241 241 242 240 239 239 238 239 240 241 242 244 245 245 247 251 256 260 261 261 261 260 259 259 259 259 261 264 265 266 269 270 269 268 266 265 263
244 245 245 247 248 249 249 248 247 245 243 242 242 243 244 244 244 243 242 241 240 239 239 239 241 240 235 230 227 228 231 232 230 231 233 233 233 234 233 232 230 230 233 235 236 239 240 241 241 242 242 242 242 241 240 240 240 240 242 245 245 245 247 251 255 258 259 260 260 259 259 259 259 258 260 263 264 264 265 267 269 269 268 266 266
246 245 244 244 245 246 247 247 247 246 244 242 242 242 243 244 244 244 243 242 242 242 241 241 242 242 239 234 230 227 229 232 232 232 234 235 234 234 235 234 233 232 233 234 235 237 239 240 240 241 242 243 244 244 243 242 241 241 242 244 245 246 248 251 253 256 259 259 260 260 259 259 259 258 259 263 265 264 263 264 267 268 267 266 265
248 247 247 246 245 245 245 245 246 245 245 243 243 242 242 242 242 243 243 243 242 242 243 242 243 245 244 239 235 232 229 231 232 231 233 236 236 235 235 236 236 235 234 235 236 237 239 241 242 242 243 244 245 245 244 243 242 241 242 245 248 249 250 250 252 255 258 259 259 260 260 261 259 258 259 262 265 267 266 266 265 265 265 265 263
250 249 248 248 247 247 247 247 246 246 246 245 245 244 244 243 243 242 242 242 241 242 242 242 243 245 247 245 240 237 234 232 233 232 231 235 238 238 237 237 238 239 238 237 237 238 239 241 243 245 245 245 244 244 244 244 244 243 244 247 249 250 251 251 253 254 256 258 258 258 259 260 259 259 260 263 266 268 268 267 266 265 264 263 262
251 250 249 249 249 249 249 249 249 248 248 247 247 246 246 245 244 244 243 242 241 241 241 241 242 243 246 248 245 241 238 235 235 235 233 233 236 239 240 239 239 240 241 240 239 240 241 241 243 246 248 248 246 244 244 245 245 245 246 248 250 251 252 252 253 254 255 256 256 256 257 258 259 260 262 264 266 268 268 267 265 264 264 263 262
252 252 251 250 250 250 250 250 250 250 249 249 249 248 248 247 246 245 245 244 243 241 240 240 241 242 244 247 247 245 242 239 237 237 237 236 235 235 238 240 240 240 241 242 242 243 244 244 245 246 248 249 249 247 246 245 246 247 248 249 251 253 254 254 254 254 254 254 254 254 255 256 258 260 261 264 265 267 268 267 265 265 265 264 262
253 253 252 252 251 251 250 250 251 251 251 250 250 250 249 249 248 246 246 246 246 244 243 241 241 242 243 245 247 247 245 243 240 239 239 240 238 234 233 236 238 239 240 241 243 244 246 247 248 248 249 249 249 249 248 246 247 247 248 250 252 253 254 255 255 254 253 254 254 254 255 256 258 259 260 262 263 265 266 267 267 266 266 265 263
254 253 253 252 252 251 251 251 251 251 251 251 251 251 251 250 249 248 247 247 247 247 246 245 244 243 243 243 245 247 246 245 243 242 240 241 242 239 235 233 234 236 238 240 242 244 246 247 248 249 250 250 251 251 251 250 249 248 248 248 249 251 252 254 255 254 254 254 254 255 255 257 258 259 260 261 262 264 265 267 268 267 266 265 263
253 253 253 253 253 252 252 251 251 251 251 252 252 251 252 251 251 250 249 248 248 248 248 247 247 246 245 245 244 246 247 246 245 244 243 242 242 242 239 236 234 234 235 237 239 242 244 246 246 246 247 248 250 251 253 254 254 254 253 251 249 249 250 251 253 254 255 255 256 256 257 258 258 260 261 261 262 263 265 267 267 266 266 265 263
253 253 254 255 255 254 253 252 252 251 251 251 252 252 252 252 251 251 250 250 249 249 248 248 248 247 247 247 246 246 246 247 246 245 244 243 243 243 242 241 239 236 235 235 237 239 241 243 245 245 244 244 245 247 249 251 254 256 257 257 256 255 253 252 252 253 254 256 257 258 258 259 259 261 262 262 262 263 263 265 265 266 266 266 264
254 254 255 255 255 255 254 253 251 251 251 252 252 252 251 251 251 252 251 251 250 249 249 249 249 249 249 249 248 248 247 247 247 247 246 245 244 244 244 244 243 242 239 237 236 237 238 239 241 243 244 243 243 244 244 246 248 251 254 256 258 259 259 258 256 255 255 255 256 257 258 259 260 261 262 263 263 263 262 262 263 264 265 266 265
257 257 256 256 255 254 254 253 252 251 251 251 252 252 251 251 251 252 252 251 251 251 250 249 250 250 250 250 250 250 249 248 248 248 247 247 246 246 246 246 246 246 246 244 241 240 239 238 238 239 241 242 242 243 243 243 245 247 249 251 253 255 257 258 258 258 258 257 257 257 258 259 261 261 262 262 262 262 261 261 261 262 263 264 264
260 260 259 258 256 256 256 255 255 254 253 252 252 252 251 251 251 251 252 252 251 251 251 250 250 250 250 251 251 251 251 250 249 248 248 248 247 247 247 247 247 247 248 249 248 246 244 242 240 238 238 239 240 241 241 241 242 244 246 248 250 251 252 253 254 255 256 258 258 259 259 259 260 261 261 261 261 261 261 261 261 262 263 264 264
259 259 260 260 259 259 257 256 255 256 256 255 253 253 251 250 251 252 252 252 252 251 251 251 251 251 250 250 251 251 252 252 251 250 249 249 248 248 248 248 248 248 248 249 250 250 249 247 245 243 240 239 240 240 240 240 241 242 244 246 248 249 250 251 251 251 252 253 254 256 258 259 259 260 260 260 259 259 259 260 260 261 261 262 263
259 258 258 258 258 258 258 258 256 254 255 256 257 256 254 251 252 252 252 252 253 252 252 252 252 252 252 251 251 251 251 251 252 252 251 251 250 249 249 249 249 249 249 249 249 250 251 250 250 248 246 243 242 242 242 241 241 242 243 244 245 247 248 249 250 251 251 251 251 251 252 254 255 257 257 258 257 257 257 258 258 259 259 260 261
258 258 257 256 256 257 260 262 260 256 256 257 259 259 257 256 255 253 251 252 254 254 254 253 253 252 252 252 252 252 251 251 251 251 252 252 252 251 251 250 250 250 249 249 249 249 249 250 251 251 251 249 247 244 244 243 244 244 245 245 246 246 246 247 248 249 250 251 251 251 251 251 252 253 254 254 255 255 254 254 255 256 257 258 259
255 255 255 255 256 259 261 262 260 260 261 262 262 261 260 259 258 255 253 253 253 254 254 254 253 253 253 252 252 252 252 252 251 251 251 251 252 252 252 251 251 251 251 250 250 250 249 250 250 251 252 252 252 250 248 246 245 246 246 247 248 249 249 248 248 248 248 249 250 251 251 252 252 253 253 254 254 254 254 255 255 255 256 258 259
255 254 253 254 256 260 263 261 260 262 264 264 264 263 262 260 258 256 256 256 255 254 255 255 254 254 253 253 253 253 253 253 252 252 252 251 251 252 252 252 252 252 252 252 251 251 251 251 251 251 251 252 252 252 252 250 249 248 247 247 247 249 250 251 251 251 249 248 248 249 250 251 251 252 253 254 254 254 255 256 256 257 258 259 260
255 255 255 254 256 260 262 262 262 264 265 264 263 262 261 261 260 259 259 258 257 256 256 256 255 255 254 254 253 253 254 253 253 252 252 252 252 252 252 252 252 252 252 253 253 252 252 252 252 252 252 252 253 253 253 252 252 251 250 249 248 248 249 250 252 253 253 251 250 250 250 250 251 252 253 254 255 254 254 255 256 257 258 259 260
255 255 255 254 255 258 260 261 262 263 263 262 262 263 262 262 263 264 263 261 259 257 257 257 256 255 254 254 254 253 253 254 254 253 253 253 253 253 253 253 253 253 253 253 253 253 253 252 252 252 252 253 253 254 253 253 253 253 253 252 251 250 250 250 251 252 253 253 253 252 252 252 252 252 253 254 255 256 256 256 256 256 257 258 259
257 257 256 256 255 256 257 258 260 260 260 260 262 264 265 264 264 265 265 263 261 259 258 257 256 255 254 254 254 254 253 254 254 254 254 254 254 253 253 253 254 254 253 253 253 254 254 253 253 253 253 253 253 254 254 253 253 253 253 254 254 253 253 252 251 252 252 253 253 253 253 254 253 253 253 254 254 255 256 256 257 258 258 259 259
259 259 259 259 258 257 257 256 257 258 259 259 260 262 263 264 264 264 264 263 262 260 259 258 257 256 256 255 254 254 253 253 254 254 254 254 254 253 253 253 254 254 254 254 254 254 254 254 254 254 254 254 254 254 255 254 254 253 253 254 254 254 254 254 254 253 253 253 253 252 253 254 254 254 254 254 255 255 255 255 256 258 259 260 260
260 260 260 260 261 260 259 257 256 256 256 256 257 258 260 262 263 263 262 262 262 261 260 260 259 259 258 257 256 256 255 254 255 255 255 255 254 254 254 254 254 254 254 255 255 255 255 254 254 254 254 254 254 254 254 255 254 254 254 254 254 254 254 254 254 255 255 255 255 254 254 254 255 254 254 254 255 255 255 255 255 256 258 259 260
261 260 260 260 261 262 262 261 259 257 256 256 256 257 257 258 260 261 261 261 261 261 261 261 261 260 259 259 258 258 257 257 256 256 256 256 255 255 255 254 254 254 255 255 255 255 256 256 255 255 254 254 254 254 254 255 255 254 254 254 254 254 254 254 254 254 255 256 256 256 255 255 256 256 256 255 256 256 256 256 256 256 256 258 259
260 260 260 260 260 262 263 263 261 260 258 258 258 258 258 258 258 258 258 259 260 260 260 260 260 260 260 260 259 259 260 259 259 258 258 257 257 256 256 255 255 255 255 255 255 255 255 255 256 256 256 255 255 255 255 255 255 255 255 254 254 254 254 254 254 254 255 255 256 256 256 256 256 257 257 257 257 258 257 257 257 257 258 258 259
260 260 260 260 260 261 262 263 262 262 261 260 260 259 259 258 258 258 257 258 258 258 258 258 258 258 259 259 259 260 260 260 260 260 259 258 258 257 257 256 256 255 255 255 254 254 254 254 255 255 256 256 256 256 255 255 255 256 256 256 255 255 254 254 254 255 255 256 257 257 256 256 257 257 258 258 258 258 259 259 259 259 259 260 260
261 260 260 260 260 260 261 261 262 262 262 262 261 260 259 259 258 258 258 258 257 257 257 257 257 256 257 258 259 259 260 260 260 260 259 259 259 258 257 257 256 256 256 255 255 254 254 254 254 254 255 255 256 256 256 256 256 256 256 256 256 256 256 256 255 255 256 256 257 257 257 257 258 258 259 259 259 259 260 260 260 260 260 260 260
Height
10708 10710 10708 10704 10702 10702 10702 10702 10701 10703 10703 10702 10702 10704 10705 10705 10705 10704 10703 10702 10701 10700 10699 10700 10701 10702 10703 10703 10705 10706 10708 10710 10713 10715 10716 10719 10722 10725 10728 10730 10733 10735 10736 10737 10739 10741 10742 10744 10746 10748 10750 10751 10754 10755 10757 10759 10761 10762 10763 10764 10765 10766 10768 10769 10771 10772 10773 10774 10775 10776 10776 10777 10778 10778 10779 10780 10780 10781 10781 10781 10782 10783 10783 10784 10784
10702 10703 10702 10700 10699 10697 10696 10695 10695 10697 10697 10696 10698 10699 10698 10699 10699 10699 10697 10695 10694 10695 10694 10694 10696 10697 10698 10700 10701 10703 10705 10707 10709 10711 10713 10715 10717 10721 10724 10727 10729 10732 10733 10734 10736 10738 10739 10741 10743 10744 10746 10748 10750 10752 10754 10756 10758 10759 10760 10761 10762 10763 10764 10765 10767 10769 10770 10771 10772 10773 10773 10774 10775 10775 10776 10777 10778 10778 10778 10779 10779 10780 10780 10781 10781
10696 10698 10697 10697 10695 10692 10692 10691 10690 10690 10690 10690 10692 10694 10693 10693 10694 10694 10692 10690 10689 10690 10691 10690 10691 10693 10694 10696 10697 10699 10701 10703 10706 10708 10710 10711 10713 10716 10719 10722 10725 10728 10730 10732 10733 10735 10737 10738 10740 10741 10743 10745 10747 10749 10751 10753 10754 10756 10757 10758 10759 10760 10761 10762 10764 10765 10767 10768 10769 10770 10771 10772 10772 10773 10773 10774 10775 10775 10775 10776 10776 10777 10777 10778 10779
10693 10695 10694 10692 10688 10687 10689 10688 10685 10684 10684 10684 10686 10688 10688 10688 10688 10689 10688 10687 10686 10686 10687 10687 10687 10688 10690 10692 10693 10695 10697 10699 10702 10705 10707 10708 10710 10712 10714 10717 10721 10724 10727 10729 10731 10733 10735 10736 10737 10739 10741 10742 10744 10746 10748 10750 10751 10752 10754 10754 10755 10756 10758 10759 10761 10762 10764 10765 10766 10767 10767 10768 10769 10770 10770 10771 10772 10772 10773 10773 10774 10774 10774 10775 10776
10688 10688 10688 10685 10680 10681 10685 10682 10680 10679 10679 10679 10680 10682 10682 10682 10684 10685 10684 10683 10682 10682 10682 10683 10684 10684 10686 10688 10689 10691 10693 10695 10698 10701 10704 10706 10707 10709 10711 10714 10717 10721 10724 10726 10728 10730 10732 10734 10735 10737 10738 10740 10742 10743 10745 10746 10747 10749 10750 10750 10751 10752 10753 10755 10757 10759 10760 10761 10762 10763 10764 10765 10766 10767 10768 10768 10769 10769 10770 10770 10771 10771 10771 10772 10773
10676 10678 10679 10677 10673 10675 10676 10673 10675 10675 10675 10675 10675 10676 10677 10678 10680 10681 10681 10680 10679 10678 10678 10679 10680 10681 10682 10684 10685 10687 10689 10691 10694 10697 10699 10702 10705 10706 10709 10711 10714 10718 10720 10722 10724 10727 10729 10731 10732 10734 10735 10737 10738 10740 10741 10742 10744 10745 10746 10747 10747 10748 10749 10751 10753 10755 10756 10757 10759 10760 10761 10762 10763 10764 10765 10766 10766 10767 10767 10768 10768 10769 10769 10769 10770
10665 10667 10670 10669 10666 10668 10668 10666 10668 10669 10671 10672 10670 10670 10672 10674 10676 10677 10677 10677 10676 10676 10675 10675 10676 10677 10679 10681 10682 10683 10686 10688 10690 10692 10695 10698 10702 10704 10706 10708 10711 10714 10716 10718 10721 10723 10725 10727 10728 10730 10731 10733 10734 10736 10737 10738 10740 10741 10742 10743 10744 10745 10746 10747 10749 10751 10752 10754 10755 10757 10758 10759 10760 10761 10762 10763 10763 10764 10764 10765 10765 10766 10766 10767 10767
10655 10658 10662 10662 10660 10662 10661 10660 10662 10663 10666 10667 10665 10666 10667 10669 10671 10673 10674 10673 10673 10672 10672 10672 10673 10673 10675 10677 10679 10680 10683 10685 10687 10689 10692 10695 10698 10701 10703 10705 10708 10710 10712 10715 10717 10719 10721 10723 10724 10725 10727 10729 10731 10732 10733 10734 10736 10737 10738 10739 10740 10741 10743 10744 10746 10747 10748 10750 10752 10753 10755 10756 10757 10758 10759 10760 10760 10761 10762 10762 10763 10763 10764 10764 10765
10646 10649 10653 10654 10654 10655 10656 10655 10656 10658 10660 10661 10661 10663 10662 10663 10667 10670 10671 10670 10669 10668 10669 10670 10670 10671 10672 10674 10676 10677 10680 10682 10683 10685 10688 10691 10694 10697 10700 10702 10704 10707 10709 10711 10714 10716 10717 10719 10721 10722 10724 10725 10727 10728 10729 10730 10732 10733 10734 10735 10736 10737 10739 10741 10742 10743 10745 10746 10748 10749 10751 10752 10754 10755 10756 10756 10757 10758 10758 10759 10760 10761 10761 10761 10762
10639 10641 10645 10647 10647 10648 10649 10649 10649 10651 10653 10654 10657 10659 10658 10659 10663 10666 10667 10667 10665 10665 10667 10667 10667 10668 10669 10671 10672 10674 10676 10677 10679 10681 10684 10687 10690 10693 10696 10698 10701 10703 10705 10708 10711 10713 10714 10716 10717 10718 10720 10722 10724 10724 10725 10727 10728 10729 10730 10731 10732 10734 10735 10737 10739 10740 10742 10743 10744 10746 10747 10748 10750 10751 10752 10753 10754 10754 10755 10756 10757 10757 10758 10759 10759
10632 10634 10637 10641 10640 10640 10641 10642 10643 10645 10646 10648 10652 10654 10654 10656 10659 10661 10662 10663 10663 10663 10664 10663 10663 10663 10665 10667 10668 10670 10672 10673 10675 10678 10680 10683 10686 10689 10692 10695 10697 10699 10701 10703 10706 10709 10711 10712 10713 10714 10717 10719 10720 10721 10722 10723 10724 10725 10726 10727 10728 10730 10731 10733 10735 10737 10739 10740 10741 10742 10743 10745 10746 10747 10748 10750 10750 10751 10752 10752 10754 10754 10755 10756 10756
10625 10627 10630 10634 10634 10634 10635 10636 10637 10639 10641 10642 10645 10648 10650 10652 10654 10656 10657 10659 10659 10659 10660 10660 10661 10661 10663 10665 10666 10667 10669 10670 10672 10675 10678 10680 10682 10685 10687 10691 10693 10695 10697 10699 10702 10705 10707 10709 10710 10711 10713 10715 10716 10717 10718 10719 10720 10721 10722 10723 10725 10726 10728 10729 10731 10733 10735 10737 10738 10739 10740 10741 10742 10743 10745 10746 10747 10748 10749 10749 10750 10751 10752 10752 10753
10619 10621 10624 10627 10629 10628 10629 10631 10632 10635 10637 10637 10638 10642 10645 10648 10650 10651 10651 10653 10653 10654 10656 10657 10658 10659 10661 10663 10664 10665 10666 10668 10670 10672 10675 10677 10679 10681 10684 10687 10690 10693 10695 10696 10698 10700 10702 10705 10706 10708 10709 10711 10712 10714 10715 10715 10716 10717 10718 10719 10721 10722 10724 10725 10727 10729 10731 10732 10734 10735 10736 10737 10738 10740 10741 10742 10744 10745 10746 10746 10747 10747 10748 10749 10750
10615 10617 10619 10622 10624 10624 10624 10626 10629 10631 10633 10633 10633 10637 10640 10642 10644 10645 10646 10647 10649 10650 10652 10653 10655 10657 10659 10660 10662 10663 10664 10666 10667 10669 10671 10673 10676 10678 10680 10684 10686 10689 10691 10693 10694 10696 10698 10700 10702 10704 10706 10707 10709 10711 10712 10712 10713 10714 10714 10716 10717 10718 10720 10721 10723 10724 10726 10728 10730 10731 10733 10734 10735 10736 10738 10739 10740 10741 10742 10742 10743 10744 10744 10745 10746
10611 10613 10614 10617 10619 10620 10620 10622 10624 10627 10628 10629 10629 10632 10635 10637 10639 10640 10640 10642 10644 10646 10647 10649 10651 10654 10656 10658 10659 10660 10661 10663 10664 10666 10668 10670 10672 10674 10677 10680 10682 10685 10686 10688 10690 10692 10694 10696 10698 10701 10703 10704 10706 10707 10708 10709 10710 10711 10711 10712 10713 10715 10716 10717 10719 10720 10722 10724 10726 10728 10729 10730 10731 10733 10734 10735 10736 10737 10738 10739 10739 10740 10741 10742 10742
10607 10608 10610 10612 10614 10616 10617 10618 10620 10622 10624 10625 10626 10628 10631 10634 10635 10636 10636 10637 10639 10641 10642 10644 10647 10650 10653 10656 10656 10657 10658 10659 10661 10663 10665 10667 10669 10671 10673 10676 10678 10680 10682 10684 10686 10687 10690 10692 10694 10697 10698 10700 10701 10703 10704 10705 10706 10707 10708 10708 10709 10711 10712 10713 10714 10716 10718 10720 10722 10724 10725 10727 10728 10729 10730 10731 10732 10733 10734 10735 10736 10736 10737 10738 10739
10603 10604 10606 10608 10610 10612 10613 10614 10616 10618 10620 10621 10622 10624 10627 10630 10631 10632 10633 10633 10634 10636 10638 10641 10643 10646 10649 10651 10653 10654 10654 10656 10658 10660 10661 10663 10666 10668 10670 10672 10674 10676 10678 10680 10681 10683 10686 10688 10691 10693 10694 10696 10697 10698 10700 10701 10702 10703 10704 10705 10705 10706 10708 10709 10710 10712 10714 10716 10718 10720 10721 10722 10723 10725 10726 10726 10727 10728 10730 10731 10732 10732 10733 10734 10735
10600 10601 10602 10604 10605 10607 10609 10611 10612 10615 10617 10618 10619 10621 10624 10625 10626 10628 10629 10629 10631 10633 10635 10638 10640 10642 10645 10647 10649 10650 10650 10652 10654 10656 10658 10660 10662 10665 10667 10669 10670 10672 10674 10676 10677 10679 10682 10685 10688 10690 10691 10692 10694 10695 10696 10697 10698 10699 10700 10701 10702 10702 10704 10706 10707 10709 10711 10712 10714 10716 10717 10718 10719 10720 10721 10722 10723 10724 10725 10726 10727 10728 10729 10730 10731
10599 10599 10600 10600 10602 10603 10605 10606 10608 10610 10612 10614 10616 10617 10620 10621 10622 10623 10625 10626 10627 10629 10632 10634 10636 10639 10641 10643 10644 10645 10646 10648 10650 10652 10654 10656 10659 10661 10664 10666 10668 10669 10671 10672 10674 10676 10678 10681 10684 10685 10687 10689 10690 10692 10693 10694 10695 10695 10696 10697 10698 10699 10701 10703 10704 10706 10708 10709 10710 10711 10713 10714 10715 10716 10717 10718 10719 10720 10720 10721 10722 10723 10724 10725 10726
10597 10598 10598 10599 10600 10601 10602 10603 10605 10606 10608 10610 10612 10613 10615 10617 10618 10619 10620 10622 10623 10625 10628 10630 10632 10634 10636 10638 10639 10640 10642 10644 10646 10648 10650 10653 10655 10657 10660 10663 10665 10666 10668 10669 10671 10673 10675 10677 10679 10681 10683 10685 10686 10688 10689 10690 10691 10692 10692 10693 10695 10696 10698 10699 10701 10702 10704 10706 10707 10708 10709 10710 10711 10712 10713 10714 10715 10716 10716 10717 10718 10719 10719 10720 10721
10596 10596 10597 10597 10598 10599 10600 10601 10602 10604 10605 10606 10608 10609 10611 10612 10614 10615 10616 10618 10619 10621 10624 10625 10628 10630 10631 10633 10635 10636 10638 10640 10642 10644 10646 10649 10651 10654 10656 10659 10660 10662 10664 10666 10667 10669 10671 10673 10675 10676 10678 10680 10681 10683 10684 10685 10687 10688 10689 10690 10692 10694 10694 10695 10697 10699 10701 10703 10704 10705 10706 10707 10708 10709 10710 10710 10711 10711 10712 10712 10713 10714 10714 10715 10716
10594 10595 10595 10596 10597 10597 10598 10599 10600 10601 10602 10604 10605 10606 10607 10608 10610 10610 10612 10614 10615 10617 10619 10621 10624 10626 10627 10629 10630 10632 10634 10636 10638 10640 10642 10645 10647 10650 10652 10654 10656 10658 10660 10661 10663 10665 10666 10668 10670 10671 10673 10675 10676 10678 10679 10680 10682 10683 10685 10686 10688 10689 10690 10691 10693 10695 10697 10699 10700 10701 10702 10703 10704 10705 10706 10706 10707 10707 10707 10708 10708 10709 10710 10710 10711
10591 10592 10593 10594 10594 10595 10596 10596 10597 10598 10600 10601 10602 10603 10603 10604 10605 10606 10607 10609 10611 10613 10615 10617 10619 10621 10624 10625 10626 10628 10630 10632 10634 10636 10638 10640 10643 10646 10648 10650 10652 10654 10656 10657 10658 10660 10662 10663 10665 10666 10667 10669 10671 10672 10674 10676 10677 10678 10680 10682 10684 10685 10686 10687 10689 10691 10693 10695 10697 10698 10699 10699 10700 10701 10702 10703 10704 10704 10704 10704 10704 10704 10705 10706 10706
10588 10589 10589 10590 10591 10592 10592 10593 10594 10595 10596 10597 10598 10599 10600 10601 10601 10602 10603 10605 10607 10609 10610 10612 10614 10617 10619 10621 10623 10625 10626 10628 10631 10632 10633 10636 10638 10641 10643 10645 10648 10649 10651 10652 10654 10655 10657 10658 10660 10661 10662 10664 10666 10667 10669 10671 10672 10673 10675 10677 10679 10681 10682 10683 10685 10687 10689 10691 10692 10694 10695 10695 10696 10697 10698 10699 10700 10701 10701 10701 10701 10701 10701 10701 10702
10584 10584 10585 10586 10587 10588 10589 10590 10591 10591 10592 10593 10594 10595 10596 10597 10598 10599 10600 10601 10602 10604 10606 10608 10609 10612 10615 10617 10619 10621 10622 10624 10626 10628 10629 10631 10634 10636 10637 10640 10643 10645 10646 10647 10649 10650 10652 10653 10655 10656 10657 10659 10661 10663 10665 10666 10667 10668 10671 10672 10674 10676 10678 10680 10682 10683 10684 10686 10687 10689 10690 10691 10692 10693 10695 10695 10696 10698 10698 10697 10697 10698 10698 10698 10698
10580 10580 10581 10582 10583 10584 10585 10586 10586 10587 10588 10589 10590 10590 10591 10592 10593 10594 10595 10596 10598 10599 10601 10603 10605 10607 10609 10612 10614 10616 10618 10620 10622 10624 10625 10626 10629 10631 10632 10635 10637 10640 10641 10643 10644 10645 10646 10648 10650 10651 10653 10655 10657 10659 10661 10662 10663 10665 10666 10666 10668 10671 10674 10676 10677 10678 10679 10681 10683 10684 10686 10687 10688 10689 10691 10691 10692 10693 10693 10693 10694 10694 10695 10695 10695
10576 10576 10577 10578 10578 10579 10580 10581 10582 10583 10583 10584 10585 10585 10586 10587 10588 10589 10591 10592 10593 10595 10596 10598 10600 10602 10604 10606 10609 10611 10613 10615 10617 10619 10620 10622 10624 10626 10628 10629 10632 10634 10636 10638 10640 10641 10641 10643 10645 10647 10649 10651 10652 10654 10655 10657 10658 10659 10660 10661 10663 10667 10670 10671 10672 10673 10674 10675 10677 10679 10681 10682 10684 10685 10686 10687 10688 10688 10689 10689 10690 10691 10691 10691 10691
10570 10571 10572 10573 10574 10575 10575 10576 10577 10578 10579 10580 10581 10581 10582 10582 10583 10584 10585 10587 10588 10589 10591 10593 10595 10597 10598 10601 10603 10606 10608 10610 10612 10614 10616 10617 10619 10621 10623 10625 10627 10629 10631 10633 10635 10636 10637 10638 10641 10642 10644 10645 10647 10649 10651 10652 10653 10654 10655 10657 10658 10662 10665 10666 10666 10667 10669 10670 10672 10674 10675 10677 10679 10680 10680 10681 10682 10683 10684 10685 10685 10686 10687 10687 10687
10563 10565 10566 10567 10568 10570 10571 10572 10573 10574 10575 10576 10576 10577 10578 10579 10580 10580 10581 10582 10583 10584 10586 10588 10590 10592 10593 10595 10597 10600 10602 10604 10606 10608 10610 10613 10614 10616 10618 10621 10622 10624 10625 10628 10630 10631 10631 10633 10636 10637 10638 10640 10641 10644 10646 10647 10647 10649 10651 10651 10654 10657 10658 10660 10661 10662 10664 10665 10667 10668 10669 10671 10673 10674 10675 10676 10677 10678 10678 10679 10680 10680 10681 10682 10683
10557 10558 10559 10561 10562 10564 10565 10566 10567 10568 10569 10570 10571 10572 10573 10575 10575 10576 10577 10577 10578 10579 10580 10582 10584 10586 10588 10590 10592 10594 10596 10598 10600 10602 10604 10607 10609 10610 10612 10615 10618 10619 10620 10622 10624 10626 10626 10628 10630 10632 10633 10635 10636 10638 10641 10642 10642 10644 10646 10646 10649 10651 10652 10653 10655 10656 10658 10660 10660 10662 10663 10665 10667 10668 10669 10670 10671 10672 10672 10673 10674 10675 10676 10677 10678
10550 10552 10553 10554 10556 10557 10559 10560 10561 10562 10563 10565 10566 10567 10568 10570 10571 10572 10573 10573 10574 10575 10576 10577 10578 10580 10582 10584 10586 10588 10590 10592 10594 10596 10598 10600 10602 10605 10606 10608 10611 10613 10615 10616 10618 10619 10621 10622 10624 10625 10627 10629 10630 10632 10634 10636 10637 10638 10640 10641 10644 10646 10646 10647 10649 10651 10652 10653 10654 10655 10656 10658 10661 10662 10663 10664 10665 10665 10666 10667 10668 10669 10670 10671 10672
10544 10545 10546 10548 10549 10551 10552 10553 10554 10555 10557 10558 10559 10561 10563 10564 10566 10567 10568 10569 10570 10570 10571 10573 10574 10575 10577 10578 10579 10581 10583 10585 10587 10589 10591 10593 10595 10598 10600 10602 10603 10606 10608 10610 10612 10613 10614 10616 10618 10619 10620 10622 10623 10625 10627 10629 10630 10632 10634 10636 10638 10639 10639 10640 10642 10644 10645 10646 10647 10648 10649 10652 10654 10656 10658 10658 10659 10659 10660 10660 10661 10663 10664 10665 10666
10538 10539 10540 10541 10543 10544 10545 10546 10547 10548 10549 10551 10553 10554 10556 10558 10559 10561 10563 10564 10564 10565 10566 10567 10569 10570 10571 10572 10573 10575 10576 10578 10580 10582 10584 10586 10588 10590 10593 10595 10596 10598 10600 10602 10605 10606 10607 10609 10611 10613 10615 10615 10617 10618 10619 10621 10622 10624 10626 10628 10631 10632 10633 10634 10635 10636 10638 10639 10640 10641 10643 10645 10647 10649 10651 10651 10652 10652 10653 10654 10654 10656 10657 10658 10659
10531 10533 10534 10534 10535 10536 10537 10538 10539 10540 10542 10543 10546 10548 10549 10551 10552 10554 10556 10557 10558 10559 10560 10561 10562 10563 10565 10566 10567 10569 10570 10571 10573 10575 10577 10579 10581 10582 10584 10587 10589 10590 10592 10594 10596 10599 10600 10602 10604 10606 10608 10610 10611 10612 10613 10613 10614 10616 10617 10619 10622 10623 10625 10626 10628 10629 10630 10631 10633 10634 10636 10638 10640 10642 10643 10644 10645 10646 10647 10647 10647 10648 10650 10650 10651
10526 10527 10527 10527 10528 10527 10528 10529 10531 10533 10534 10536 10538 10540 10541 10543 10545 10546 10548 10550 10551 10552 10553 10555 10556 10557 10558 10559 10560 10562 10563 10565 10566 10568 10570 10572 10574 10575 10577 10579 10580 10582 10584 10586 10588 10590 10592 10594 10596 10598 10600 10602 10604 10605 10607 10607 10608 10609 10610 10612 10613 10615 10616 10618 10619 10621 10622 10623 10625 10627 10628 10630 10632 10634 10635 10636 10638 10639 10639 10640 10640 10641 10642 10643 10644
10519 10518 10518 10519 10519 10518 10518 10520 10522 10524 10526 10528 10529 10531 10533 10535 10537 10539 10540 10542 10544 10545 10546 10548 10549 10550 10552 10553 10554 10555 10557 10558 10560 10561 10563 10564 10566 10568 10569 10571 10573 10574 10575 10577 10580 10582 10583 10585 10587 10589 10591 10593 10595 10597 10599 10600 10601 10602 10604 10605 10607 10608 10609 10610 10611 10612 10613 10615 10617 10618 10620 10621 10623 10625 10627 10628 10630 10631 10632 10632 10633 10633 10634 10636 10636
10508 10508 10507 10508 10509 10510 10510 10511 10513 10514 10517 10520 10522 10523 10525 10528 10530 10531 10532 10534 10536 10537 10538 10540 10541 10542 10544 10545 10547 10548 10549 10551 10553 10554 10556 10557 10559 10560 10561 10563 10564 10565 10566 10568 10570 10573 10575 10576 10578 10580 10582 10584 10586 10588 10590 10592 10594 10595 10596 10598 10599 10601 10602 10603 10604 10604 10605 10606 10608 10609 10611 10613 10615 10616 10618 10620 10621 10622 10623 10624 10625 10626 10626 10627 10628
10498 10498 10497 10498 10500 10501 10500 10502 10504 10506 10509 10512 10514 10515 10517 10520 10522 10523 10524 10526 10527 10528 10530 10532 10533 10534 10536 10537 10539 10540 10542 10543 10545 10547 10548 10549 10551 10552 10553 10554 10555 10557 10558 10559 10561 10563 10565 10567 10569 10571 10574 10575 10577 10578 10580 10583 10585 10586 10588 10590 10591 10592 10594 10595 10596 10596 10597 10599 10600 10602 10603 10604 10606 10608 10609 10611 10612 10613 10615 10616 10617 10617 10618 10618 10619
10488 10489 10490 10491 10493 10492 10491 10492 10494 10497 10500 10503 10505 10507 10508 10510 10512 10514 10516 10518 10519 10521 10522 10524 10525 10526 10527 10529 10530 10531 10533 10535 10537 10538 10540 10541 10542 10543 10544 10545 10546 10548 10549 10550 10552 10554 10555 10557 10559 10561 10564 10567 10568 10569 10571 10574 10576 10577 10579 10581 10582 10583 10585 10587 10587 10588 10589 10591 10592 10594 10595 10596 10597 10599 10601 10602 10603 10605 10606 10607 10609 10609 10610 10610 10611
10480 10481 10483 10483 10484 10484 10484 10483 10484 10487 10491 10494 10496 10497 10498 10500 10503 10505 10508 10510 10512 10513 10514 10515 10516 10517 10518 10519 10520 10521 10522 10525 10527 10529 10531 10532 10533 10534 10535 10536 10538 10539 10540 10542 10543 10545 10547 10548 10549 10550 10553 10555 10558 10560 10563 10566 10567 10568 10570 10572 10573 10573 10576 10578 10578 10579 10581 10582 10584 10585 10586 10587 10588 10590 10592 10593 10595 10596 10598 10600 10601 10601 10602 10602 10604
10473 10475 10476 10475 10475 10476 10476 10476 10476 10479 10481 10484 10486 10487 10487 10490 10493 10495 10498 10502 10504 10504 10504 10505 10507 10508 10508 10509 10510 10511 10512 10514 10517 10519 10520 10522 10523 10524 10525 10527 10528 10530 10532 10533 10534 10536 10538 10539 10539 10541 10542 10544 10545 10548 10553 10556 10558 10560 10561 10563 10564 10563 10565 10568 10568 10569 10572 10573 10575 10576 10577 10578 10578 10580 10581 10584 10586 10588 10590 10592 10593 10592 10593 10594 10596
10466 10467 10469 10468 10467 10467 10467 10467 10469 10472 10474 10475 10476 10476 10476 10478 10482 10486 10489 10491 10493 10494 10495 10495 10496 10498 10498 10500 10501 10501 10502 10504 10506 10508 10510 10511 10513 10514 10515 10517 10518 10520 10522 10524 10525 10527 10529 10530 10530 10531 10532 10533 10534 10537 10541 10544 10547 10549 10550 10553 10554 10553 10555 10558 10559 10558 10561 10564 10566 10568 10568 10567 10568 10570 10571 10573 10577 10579 10581 10583 10582 10582 10583 10584 10586
10458 10459 10460 10460 10459 10459 10459 10459 10461 10464 10467 10467 10466 10466 10466 10468 10472 10477 10480 10481 10482 10484 10485 10485 10486 10488 10489 10490 10492 10492 10492 10493 10496 10498 10500 10501 10502 10504 10505 10506 10508 10510 10512 10514 10515 10516 10518 10520 10520 10521 10523 10524 10524 10527 10530 10532 10534 10536 10538 10539 10542 10543 10545 10548 10548 10546 10548 10554 10558 10558 10557 10556 10558 10562 10563 10563 10566 10569 10571 10573 10572 10572 10572 10573 10576
10448 10449 10449 10450 10450 10451 10451 10452 10454 10456 10459 10459 10456 10455 10457 10459 10463 10466 10468 10470 10472 10473 10475 10475 10476 10477 10478 10479 10480 10481 10482 10483 10485 10488 10490 10491 10492 10494 10495 10496 10498 10500 10502 10504 10505 10506 10507 10509 10510 10511 10513 10514 10515 10516 10518 10520 10523 10525 10525 10526 10529 10532 10534 10536 10537 10536 10536 10541 10546 10547 10547 10548 10549 10552 10554 10554 10555 10557 10559 10561 10562 10562 10563 10563 10565
10438 10438 10439 10440 10440 10442 10443 10446 10449 10451 10451 10449 10447 10446 10446 10448 10453 10456 10457 10458 10461 10463 10464 10464 10464 10465 10466 10468 10469 10470 10472 10473 10474 10477 10480 10481 10481 10483 10485 10486 10487 10489 10491 10493 10494 10494 10496 10497 10499 10500 10501 10504 10505 10505 10505 10509 10512 10513 10514 10515 10517 10521 10523 10524 10526 10526 10526 10529 10533 10537 10538 10538 10538 10541 10543 10544 10545 10546 10548 10550 10551 10552 10552 10552 10554
10428 10429 10430 10430 10430 10432 10434 10439 10445 10445 10442 10439 10437 10436 10436 10438 10443 10447 10446 10446 10449 10452 10452 10451 10452 10453 10455 10456 10457 10458 10460 10462 10463 10465 10468 10469 10469 10471 10473 10475 10476 10477 10479 10481 10482 10483 10484 10485 10488 10489 10490 10492 10494 10494 10493 10496 10500 10502 10503 10505 10507 10510 10512 10513 10514 10516 10516 10517 10520 10525 10528 10526 10525 10530 10533 10532 10532 10534 10537 10540 10542 10542 10541 10541 10542
10418 10419 10420 10420 10420 10421 10424 10431 10438 10437 10432 10428 10427 10428 10430 10432 10434 10435 10434 10434 10438 10440 10440 10439 10441 10443 10443 10443 10444 10445 10446 10451 10454 10454 10455 10456 10456 10459 10462 10465 10466 10466 10468 10468 10469 10470 10471 10473 10475 10477 10477 10479 10481 10482 10482 10483 10486 10489 10492 10494 10497 10498 10499 10501 10503 10505 10506 10505 10506 10512 10517 10515 10513 10517 10520 10519 10519 10522 10525 10529 10532 10532 10532 10531 10531
10407 10408 10410 10412 10412 10411 10414 10421 10426 10424 10419 10418 10419 10420 10423 10425 10425 10423 10422 10424 10426 10427 10428 10429 10430 10431 10430 10430 10431 10432 10434 10439 10442 10443 10443 10443 10444 10447 10451 10453 10454 10455 10456 10456 10457 10458 10459 10460 10461 10463 10465 10466 10467 10469 10470 10470 10472 10475 10479 10483 10485 10485 10487 10490 10492 10494 10494 10493 10493 10499 10505 10504 10501 10503 10507 10507 10507 10509 10512 10516 10519 10521 10522 10522 10522
10396 10397 10400 10402 10403 10405 10406 10409 10410 10409 10408 10409 10411 10412 10414 10414 10413 10411 10411 10413 10414 10416 10418 10419 10419 10419 10417 10417 10419 10421 10423 10427 10430 10430 10430 10431 10432 10435 10439 10440 10441 10442 10443 10443 10445 10446 10447 10447 10448 10449 10451 10453 10454 10455 10457 10458 10460 10461 10465 10470 10471 10471 10475 10479 10481 10482 10482 10482 10483 10486 10490 10492 10490 10491 10494 10495 10494 10495 10498 10503 10506 10509 10512 10513 10513
10384 10386 10389 10392 10396 10399 10398 10396 10395 10396 10397 10399 10401 10402 10403 10402 10400 10398 10399 10403 10404 10405 10406 10407 10407 10407 10405 10405 10408 10411 10413 10415 10416 10416 10416 10418 10420 10422 10424 10426 10427 10428 10429 10429 10431 10432 10433 10434 10435 10436 10437 10439 10440 10442 10443 10445 10447 10448 10451 10455 10456 10458 10462 10466 10468 10470 10471 10471 10471 10471 10476 10480 10479 10479 10481 10482 10482 10483 10485 10489 10493 10498 10502 10502 10500
10372 10374 10378 10382 10388 10389 10387 10384 10384 10385 10386 10387 10388 10388 10389 10389 10388 10387 10389 10392 10392 10392 10394 10394 10394 10394 10394 10395 10398 10401 10402 10402 10402 10402 10403 10405 10407 10408 10409 10411 10413 10414 10415 10415 10417 10419 10420 10421 10422 10422 10424 10425 10427 10429 10430 10431 10433 10434 10437 10440 10442 10444 10448 10452 10455 10458 10460 10461 10457 10456 10462 10467 10467 10466 10467 10468 10470 10472 10472 10475 10481 10486 10489 10489 10487